TimeMST,TemperatureF,Dew PointF,Humidity,Sea Level PressureIn,VisibilityMPH,Wind Direction,Wind SpeedMPH,Gust SpeedMPH,PrecipitationIn,Events,Conditions,WindDirDegrees,DateUTC
12:16 AM,23.0,12.2,63,29.99,10.0,Calm,Calm,-,N/A,,Clear,0,2013-02-12 07:16:00
12:36 AM,23.0,12.2,63,29.98,10.0,North,3.5,-,N/A,,Clear,360,2013-02-12 07:36:00
12:56 AM,23.0,12.2,63,29.98,10.0,NNW,3.5,-,N/A,,Clear,340,2013-02-12 07:56:00
1:15 AM,23.0,12.2,63,29.98,10.0,Calm,Calm,-,N/A,,Clear,0,2013-02-12 08:15:00
1:36 AM,23.0,12.2,63,29.98,10.0,Calm,Calm,-,N/A,,Clear,0,2013-02-12 08:36:00
1:55 AM,23.0,12.2,63,29.98,10.0,Calm,Calm,-,N/A,,Clear,0,2013-02-12 08:55:00
2:16 AM,21.2,12.2,68,29.98,10.0,Calm,Calm,-,N/A,,Clear,0,2013-02-12 09:16:00
2:36 AM,19.4,10.4,68,29.98,10.0,Calm,Calm,-,N/A,,Clear,0,2013-02-12 09:36:00
2:55 AM,21.2,12.2,68,29.97,10.0,Calm,Calm,-,N/A,,Clear,0,2013-02-12 09:55:00
3:16 AM,19.4,10.4,68,29.96,10.0,West,3.5,-,N/A,,Clear,260,2013-02-12 10:16:00
3:36 AM,21.2,12.2,68,29.97,10.0,Calm,Calm,-,N/A,,Clear,0,2013-02-12 10:36:00
3:56 AM,21.2,12.2,68,29.98,10.0,Calm,Calm,-,N/A,,Clear,0,2013-02-12 10:56:00
4:16 AM,21.2,12.2,68,29.98,10.0,Calm,Calm,-,N/A,,Clear,0,2013-02-12 11:16:00
4:35 AM,21.2,8.6,58,29.98,10.0,West,3.5,-,N/A,,Clear,270,2013-02-12 11:35:00
4:55 AM,21.2,5.0,50,29.99,10.0,NNW,5.8,-,N/A,,Clear,330,2013-02-12 11:55:00
5:48 AM,21.2,3.2,46,29.99,20.0,NW,8.1,-,N/A,,Partly Cloudy,310,2013-02-12 12:48:00
6:46 AM,15.8,-0.4,49,29.98,60.0,WSW,6.9,-,N/A,,Partly Cloudy,250,2013-02-12 13:46:00
7:47 AM,23.0,-2.2,33,29.99,45.0,Calm,Calm,-,N/A,,Partly Cloudy,0,2013-02-12 14:47:00
8:49 AM,26.6,5.0,40,29.99,60.0,Calm,Calm,-,N/A,,Clear,0,2013-02-12 15:49:00
9:47 AM,32.0,-2.2,23,29.99,60.0,SE,3.5,-,N/A,,Clear,140,2013-02-12 16:47:00
10:47 AM,35.6,-5.8,17,30.00,40.0,ENE,4.6,-,N/A,,Partly Cloudy,60,2013-02-12 17:47:00
11:55 AM,37.4,-16.6,9,29.99,50.0,NW,3.5,-,N/A,,Partly Cloudy,310,2013-02-12 18:55:00
12:48 PM,39.2,-16.6,9,29.98,50.0,SE,5.8,-,N/A,,Partly Cloudy,140,2013-02-12 19:48:00
1:53 PM,41.0,-16.6,8,29.97,60.0,East,5.8,-,N/A,,Partly Cloudy,90,2013-02-12 20:53:00
2:47 PM,41.0,-16.6,8,29.96,60.0,East,3.5,-,N/A,,Partly Cloudy,100,2013-02-12 21:47:00
3:47 PM,41.0,-16.6,8,29.97,60.0,ENE,4.6,-,N/A,,Partly Cloudy,60,2013-02-12 22:47:00
4:46 PM,39.2,-13.0,10,29.98,60.0,Calm,Calm,-,N/A,,Partly Cloudy,0,2013-02-12 23:46:00
5:46 PM,35.6,-7.6,16,29.99,60.0,Calm,Calm,-,N/A,,Mostly Cloudy,0,2013-02-13 00:46:00
6:46 PM,30.2,-2.2,25,29.99,30.0,WSW,4.6,-,N/A,,Scattered Clouds,250,2013-02-13 01:46:00
7:50 PM,30.2,-0.4,27,29.99,20.0,Calm,Calm,-,N/A,,Scattered Clouds,0,2013-02-13 02:50:00
8:50 PM,32.0,-0.4,25,29.99,20.0,Calm,Calm,-,N/A,,Scattered Clouds,0,2013-02-13 03:50:00
9:46 PM,32.0,-0.4,25,29.99,20.0,Calm,Calm,-,N/A,,Mostly Cloudy,0,2013-02-13 04:46:00
10:15 PM,28.4,3.2,34,29.98,10.0,SSW,4.6,-,N/A,,Clear,210,2013-02-13 05:15:00
10:31 PM,28.4,3.2,34,29.98,10.0,WSW,4.6,-,N/A,,Clear,240,2013-02-13 05:31:00
10:56 PM,28.4,3.2,34,29.98,10.0,SW,6.9,-,N/A,,Clear,230,2013-02-13 05:56:00
11:15 PM,26.6,5.0,40,29.98,10.0,WNW,5.8,-,N/A,,Clear,300,2013-02-13 06:15:00
11:36 PM,30.2,3.2,32,29.99,10.0,WNW,15.0,-,N/A,,Clear,300,2013-02-13 06:36:00
11:56 PM,32.0,3.2,30,29.99,10.0,WNW,12.7,21.9,N/A,,Clear,290,2013-02-13 06:56:00